Showing default

GLOBAL-2, 43812

Orbit data source: Space-Track

GLOBAL-2, 43812 is a payload satellite owned by BlackSky Global (US) in SSO that was launched on Mon, 03 Dec 2018 UTC via an FALCON 9 launch vehicle from the Air Force Western Test Range (AFWTR). Payload-class satellites include a variety of spacecraft equipped with specific instruments for various scientific and technological missions. These include communications satellites like Starlink; space stations such as the ISS; scientific satellites like the Hubble; Earth observation satellites from companies like Planet Labs, Umbra, and HawkEye 360; GPS; miniature CubeSats for education and research; and military/defense satellites.

Loading next visibility...
Identifier
43812, 2018-099BG
Orbit
SSO
Country
Flag of USUS
Related business
Manufacturer
LeoStella
Mission
Operational Commercial Imaging
Bus & Motor
BSKY, Unknown motor
Mass
55 kg wet, ~50 kg dry
Launch date (UTC)
2018-12-03 (8 years ago)
Launch vehicle
FALCON 9
Launch site
Air Force Western Test Range (AFWTR)
Object type
Payload
Rocket body
Debris
Shape & HBR
Box, 1.0 m
Radar Cross Section
0.625 m², Medium (>0.1 m² and < 1m²)

Expand to show TLE details & history
Last TLE update: 16 hours ago

TLE from 16 hours ago
0 GLOBAL-2
1 43812U 18099BG  26235.51986044  .00002678  00000-0  17319-3 0  9997
2 43812  97.3526 269.2333 0004183 287.4772  72.6000 15.09003928422069
Epoch: 2026-08-23T12:28Z
TLE epoch observation values (Epoch: 2026-08-23T12:28:35.942Z)
Latitude
0.00002°
Longitude
110.2688°
Altitude
541.455 km
Speed
7.592 km/s
True Right ascension
17h 56m 55s
True Declination
0° 00' 00"
Sunlit
Object was in full shadow at epoch
Visualization orbit readout
Latitude
Unknown
Longitude
Unknown
Altitude
Unknown
Speed
Unknown
Apparent Right ascension
Unknown
Apparent Declination
Unknown
Sunlit
N/A
Visualization observer readout
Local Sidereal Time
20:00:48
Azimuth
Unknown
Elevation
Unknown
Doppler factor
Unknown
Orbital elements
Apogee altitude
539.113 km
Perigee altitude
533.328 km
Semi-major axis
6,914.358 km
Eccentricity
0.00042
Inclination
97.3526°
RAAN
269.2333°
Arg. of periapsis
287.4772°
True anomaly
72.64575°
Mean anomaly
72.6°
Eccentric anomaly
72.62287°
Mean motion
3.77499 °/min
Orbital period
95.36 mins
BSTAR
0.00017319
Loading maneuver chart data...
Computing Atmospheric mass density...
Loading historical data...
Loading historical data...
Loading historical data...
Loading historical data...
Loading historical data...
Loading historical data...
Loading historical data...

Documentation

Showing up to 5 results
|